Date String (YYYY-MM-DD hh:mm:ss) UTC,Instrument flags,Ambient pressure (hPa),Sample flow (lpm),Bypass flow (lpm),Sample temperature (°C),Ambient temperature (°C),ASC tube jacket temperature (°C),LED temperature (°C),Box temperature (°C),Sample RH (%),Span deviation,Mass concentration (μg/m³),Mass concentration (μg/m³),Mass concentration (μg/m³)
DateTimeUTC,F1_M11,P_M11,Q1_M11,Q2_M11,T1_M11,T2_M11,T3_M11,T4_M11,T5_M11,U1_M11,ZSPAN_M11,X0_M11,X2_M11,X1_M11
2022-10-28 15:00:00,,0833.2,5.00,0.00,22.8,21.6,00.0,31.6,24.8,14.8,0000.0,0005.22,0002.65,0002.32
2022-10-28 15:01:00,,0833.1,5.00,0.00,22.9,21.6,00.0,31.6,24.8,14.7,0000.0,0006.45,0002.59,0002.30
2022-10-28 15:02:00,,0833.1,5.00,0.00,22.9,21.6,00.0,31.6,24.8,14.6,0000.0,0005.60,0002.55,0002.29
2022-10-28 15:03:00,,0833.2,5.00,0.00,22.9,21.6,00.0,31.6,24.8,14.6,0000.0,0005.53,0002.53,0002.28
2022-10-28 15:04:00,,0833.2,5.01,0.00,22.9,21.7,00.0,31.6,24.9,14.8,0000.0,0005.41,0002.49,0002.26
2022-10-28 15:05:00,,0833.1,4.99,0.00,22.9,21.7,00.0,31.6,24.9,14.9,0000.0,0005.17,0002.48,0002.27
2022-10-28 15:06:00,,0833.2,5.01,0.00,22.9,21.6,00.0,31.6,24.9,15.0,0000.0,0005.19,0002.45,0002.24
2022-10-28 15:07:00,,0833.2,5.00,0.00,22.9,21.7,00.0,31.6,24.9,14.7,0000.0,0005.18,0002.45,0002.23
2022-10-28 15:08:00,,0833.1,4.99,0.00,22.9,21.7,00.0,31.6,24.9,14.8,0000.0,0005.20,0002.46,0002.25
2022-10-28 15:09:00,,0833.2,5.00,0.00,22.9,21.7,00.0,31.7,24.9,14.7,0000.0,0005.00,0002.44,0002.24
2022-10-28 15:10:00,,0833.2,5.01,0.00,23.0,21.7,00.0,31.7,25.0,14.7,0000.0,0004.97,0002.43,0002.23
2022-10-28 15:11:00,,0833.2,5.01,0.00,23.0,21.7,00.0,31.7,24.9,14.6,0000.0,0005.00,0002.48,0002.24
2022-10-28 15:12:00,,0833.2,5.01,0.00,23.0,21.7,00.0,31.7,24.9,14.7,0000.0,0003.42,0002.51,0002.25
2022-10-28 15:13:00,,0833.1,5.00,0.00,23.0,21.7,00.0,31.7,24.9,14.7,0000.0,0003.42,0002.56,0002.27
2022-10-28 15:14:00,,0833.1,5.00,0.00,23.0,21.7,00.0,31.7,24.9,14.8,0000.0,0003.39,0002.55,0002.28
2022-10-28 15:15:00,,0833.1,4.98,0.00,23.0,21.8,00.0,31.7,24.9,15.1,0000.0,0003.47,0002.59,0002.30
2022-10-28 15:16:00,,0833.1,5.00,0.00,23.0,21.8,00.0,31.7,24.9,15.3,0000.0,0003.56,0002.64,0002.31
2022-10-28 15:17:00,,0833.2,5.00,0.00,23.0,21.8,00.0,31.7,24.9,15.1,0000.0,0003.59,0002.66,0002.32
2022-10-28 15:18:00,,0833.2,5.00,0.00,23.0,21.8,00.0,31.7,24.9,14.8,0000.0,0003.74,0002.69,0002.34
2022-10-28 15:19:00,,0833.2,5.00,0.00,23.0,21.8,00.0,31.7,24.9,14.8,0000.0,0005.33,0002.72,0002.36
2022-10-28 15:20:00,,0833.1,4.99,0.00,23.0,21.8,00.0,31.8,25.0,14.7,0000.0,0005.84,0002.74,0002.37
2022-10-28 15:21:00,,0833.2,5.00,0.00,23.1,21.8,00.0,31.8,25.0,14.7,0000.0,0006.01,0002.77,0002.39
2022-10-28 15:22:00,,0833.2,5.00,0.00,23.1,21.8,00.0,31.8,25.0,14.6,0000.0,0006.35,0002.73,0002.38
2022-10-28 15:23:00,,0833.1,5.00,0.00,23.1,21.8,00.0,31.8,25.0,14.6,0000.0,0006.38,0002.73,0002.38
2022-10-28 15:24:00,,0833.2,4.99,0.00,23.1,21.8,00.0,31.8,25.0,14.5,0000.0,0006.32,0002.70,0002.37
2022-10-28 15:25:00,,0833.2,5.00,0.00,23.1,21.8,00.0,31.8,25.0,14.6,0000.0,0006.37,0002.71,0002.37
2022-10-28 15:26:00,,0833.1,5.00,0.00,23.1,21.9,00.0,31.8,25.0,14.6,0000.0,0006.30,0002.68,0002.36
2022-10-28 15:27:00,,0833.1,5.00,0.00,23.1,21.9,00.0,31.8,25.0,14.8,0000.0,0006.34,0002.65,0002.36
2022-10-28 15:28:00,,0833.2,5.00,0.00,23.1,21.9,00.0,31.8,25.0,15.0,0000.0,0006.30,0002.65,0002.36
2022-10-28 15:29:00,,0833.2,5.00,0.00,23.1,21.9,00.0,31.8,25.0,15.2,0000.0,0006.16,0002.63,0002.36
2022-10-28 15:30:00,,0833.2,5.00,0.00,23.1,21.9,00.0,31.9,25.0,15.0,0000.0,0004.76,0002.59,0002.34
2022-10-28 15:31:00,,0833.2,5.00,0.00,23.1,21.9,00.0,31.9,25.0,15.1,0000.0,0004.63,0002.58,0002.33
2022-10-28 15:32:00,,0833.1,5.00,0.00,23.2,21.9,00.0,31.9,25.0,14.9,0000.0,0004.83,0002.63,0002.31
2022-10-28 15:33:00,,0833.2,5.00,0.00,23.2,21.9,00.0,31.9,25.0,15.1,0000.0,0004.50,0002.68,0002.31
2022-10-28 15:34:00,,0833.2,5.00,0.00,23.2,21.9,00.0,31.9,25.0,15.4,0000.0,0004.54,0002.71,0002.32
2022-10-28 15:35:00,,0833.2,4.98,0.00,23.2,22.0,00.0,31.9,25.0,15.1,0000.0,0004.60,0002.75,0002.33
2022-10-28 15:36:00,,0833.2,5.02,0.00,23.2,22.0,00.0,31.9,25.1,15.1,0000.0,0004.60,0002.77,0002.34
2022-10-28 15:37:00,,0833.2,5.00,0.00,23.2,22.0,00.0,32.0,25.1,15.1,0000.0,0004.66,0002.80,0002.35
2022-10-28 15:38:00,,0833.2,5.00,0.00,23.2,22.0,00.0,32.0,25.1,15.1,0000.0,0004.55,0002.81,0002.37
2022-10-28 15:39:00,,0833.2,5.00,0.00,23.2,22.0,00.0,32.0,25.1,15.0,0000.0,0004.56,0002.82,0002.38
2022-10-28 15:40:00,,0833.2,5.00,0.00,23.3,22.0,00.0,32.0,25.1,15.3,0000.0,0004.54,0002.82,0002.39
2022-10-28 15:41:00,,0833.2,5.00,0.00,23.3,22.1,00.0,32.0,25.1,15.2,0000.0,0004.54,0002.84,0002.41
2022-10-28 15:42:00,,0833.1,4.98,0.00,23.3,22.1,00.0,32.0,25.1,15.2,0000.0,0004.08,0002.85,0002.42
2022-10-28 15:43:00,,0833.2,5.01,0.00,23.3,22.1,00.0,32.0,25.1,15.3,0000.0,0003.97,0002.87,0002.45
2022-10-28 15:44:00,,0833.2,5.00,0.00,23.3,22.1,00.0,32.0,25.1,14.7,0000.0,0003.97,0002.87,0002.46
2022-10-28 15:45:00,,0833.2,5.00,0.00,23.3,22.1,00.0,32.1,25.2,14.8,0000.0,0004.03,0002.86,0002.48
2022-10-28 15:46:00,,0833.1,5.00,0.00,23.3,22.2,00.0,32.1,25.2,14.1,0000.0,0003.88,0002.80,0002.47
2022-10-28 15:47:00,,0833.2,5.00,0.00,23.4,22.2,00.0,32.1,25.2,13.7,0000.0,0003.88,0002.78,0002.46
2022-10-28 15:48:00,,0833.1,5.00,0.00,23.4,22.2,00.0,32.1,25.2,13.7,0000.0,0003.87,0002.77,0002.45
2022-10-28 15:49:00,,0833.1,5.00,0.00,23.4,22.2,00.0,32.1,25.3,13.9,0000.0,0003.96,0002.79,0002.43
2022-10-28 15:50:00,,0833.1,5.01,0.00,23.4,22.3,00.0,32.1,25.3,14.0,0000.0,0003.91,0002.76,0002.41
2022-10-28 15:51:00,,0833.1,5.00,0.00,23.4,22.3,00.0,32.1,25.3,13.9,0000.0,0003.92,0002.75,0002.40
2022-10-28 15:52:00,,0833.1,5.00,0.00,23.5,22.3,00.0,32.2,25.3,14.3,0000.0,0004.10,0002.77,0002.37
2022-10-28 15:53:00,,0833.1,5.00,0.00,23.5,22.4,00.0,32.2,25.4,14.0,0000.0,0004.07,0002.75,0002.35
2022-10-28 15:54:00,,0833.1,5.00,0.00,23.5,22.4,00.0,32.2,25.4,13.9,0000.0,0004.36,0002.69,0002.33
2022-10-28 15:55:00,,0833.0,5.00,0.00,23.5,22.4,00.0,32.2,25.4,14.2,0000.0,0004.55,0002.65,0002.31
2022-10-28 15:56:00,,0833.0,4.98,0.00,23.6,22.4,00.0,32.2,25.5,14.6,0000.0,0004.40,0002.60,0002.28
2022-10-28 15:57:00,,0833.0,5.00,0.00,23.6,22.5,00.0,32.2,25.5,15.3,0000.0,0004.44,0002.61,0002.28
2022-10-28 15:58:00,,0833.0,4.99,0.00,23.6,22.5,00.0,32.3,25.5,15.7,0000.0,0004.45,0002.61,0002.28
2022-10-28 15:59:00,,0833.0,5.00,0.00,23.6,22.5,00.0,32.3,25.5,15.8,0000.0,0004.41,0002.61,0002.29
